SES-7 (PROTOSTAR 2)

Last updated on Nov. 18, 2019, 4:21 a.m. UTC

1 34941U 09027A   19321.01794451 -.00000337  00000-0  00000+0 0  9999
2 34941   0.0695  97.8383 0002412 161.7406 270.9595  1.00271636 38515
UTC
Height (km)
Latitude
Longitude
Inclination
Orbital Period
UTC large
Height (km)
Speed (km/s)
/
Latitude / Longitude
Inclination (degrees)
Orbital Period (minutes)
Azimuth
Elevation
Range (km)
Doppler Factor
iOS Compass Heading
iOS Angle

Next 30 passes for location: Hong Kong

Rise time Rise Azimuth (degrees) Set time Set Azimuth (degrees) Duration Max altitude (degrees)

No matching passes for this satellites